Flag for Norway Weather past 2 weeks in Finse, Norway

Now
44 °F

Quite cool.


Feels Like: 41 °F
Forecast: 31 / 43 °F
Wind: 5 mph from Southeast

Location: Finsevatn

Current Time: Sep 30, 2014 at 1:20:10 PM

Latest Report: Sep 30, 2014 at 12:00 PM


Visibility: N/A

Pressure: 30.24 "Hg

Humidity: 87%

Dew point: 40 °F

Location of FinseLocation

Historic Weather in Finse — Graph

°F

Finse temperature yesterday

Maximum temperature yesterday: 39 °F (at 7:00 PM)
Minimum temperature yesterday: 36 °F (at 11:00 PM)
Average temperature yesterday: 38 °F

Past Weeks' High & Low Weather Summary

 TemperatureHumidityPressure
High56 °F (Sep 15, 4:00 PM)95% (Sep 18, 4:00 AM)30.46 "Hg (Sep 18, 4:00 AM)
Low30 °F (Sep 23, 4:00 AM)41% (Sep 22, 5:00 PM)29.41 "Hg (Sep 26, 10:00 AM)
Average41 °F82%29.99 "Hg
* Reported Sep 15 12:00 Noon — Sep 30 12:00 Noon, Finse, Weather by CustomWeather, © 2014

Note: Actual official high and low records may vary slightly from our data, if they occured in-between our weather recording intervals... More about our weather records

Advertising

Finse weather history for previous 24 hours

 ConditionsComfort  
Time TempWeatherWind HumidityBarometerVisibility
12:00 PM
Sep 30
44 °FQuite cool.5 mph87%30.24 "HgN/A
11:00 AM41 °FQuite cool.2 mph90%30.25 "HgN/A
10:00 AM40 °FQuite cool.1 mph91%30.26 "HgN/A
9:00 AM39 °FChilly.1 mph93%30.27 "HgN/A
8:00 AM38 °FChilly.1 mph93%30.26 "HgN/A
7:00 AM37 °FChilly.No wind94%30.27 "HgN/A
6:00 AM37 °FChilly.No wind94%30.27 "HgN/A
5:00 AM36 °FChilly.1 mph93%30.27 "HgN/A
4:00 AM36 °FChilly.No wind94%30.27 "HgN/A
3:00 AM36 °FChilly.1 mph95%30.28 "HgN/A
2:00 AM35 °FChilly.No wind95%30.28 "HgN/A
1:00 AM34 °FChilly.1 mph95%30.29 "HgN/A
12:00 AM35 °FChilly.1 mph94%30.27 "HgN/A
11:00 PM
Sep 29
36 °FChilly.2 mph92%30.26 "HgN/A
10:00 PM38 °FChilly.6 mph88%30.23 "HgN/A
9:00 PM38 °FChilly.3 mph88%30.21 "HgN/A
8:00 PM39 °FChilly.3 mph87%30.20 "HgN/A
7:00 PM39 °FChilly.3 mph90%30.18 "HgN/A
6:00 PM39 °FChilly.7 mph90%30.18 "HgN/A
5:00 PM39 °FChilly.6 mph89%30.19 "HgN/A
4:00 PM39 °FChilly.7 mph87%30.18 "HgN/A
3:00 PM39 °FChilly.8 mph89%30.16 "HgN/A
2:00 PM38 °FChilly.8 mph91%30.15 "HgN/A
1:00 PM38 °FChilly.9 mph92%30.14 "HgN/A
Weather by CustomWeather, © 2014

See weather overviewHow to use our weather pages